CAPE
315 440 610 915 1041 984 845 807 967 1192 1243 1266 1147 1133 1079 1041 984 1060 1139 1309 1250 999 970 989 966 839 738 671 636 614 619 524 551 663 790 767 1434 956 1608 1828 1913 1561 1873
412 399 550 842 991 1007 976 1055 1365 1321 1173 900 869 957 976 876 773 743 818 898 1065 910 725 771 744 701 605 538 498 506 541 482 454 502 383 382 1207 985 1168 1657 1725 1716 1785
510 388 548 746 1025 1158 1365 1548 1506 1285 920 825 776 833 759 712 672 766 909 1000 870 652 639 546 380 262 174 172 160 213 268 239 268 268 161 3 432 1019 885 1379 1367 1653 1653
484 534 568 824 1068 1337 1407 1407 1353 1146 994 899 876 829 747 705 758 816 776 694 659 517 296 145 116 135 121 79 29 20 17 31 13 0 0 0 196 944 740 977 1181 1240 1294
636 735 828 856 938 1147 1308 1309 1309 1257 1161 1095 1024 851 839 806 669 575 660 638 438 134 84 57 40 20 10 8 1 0 0 0 0 0 0 0 195 624 1078 812 580 1045 1043
428 599 713 792 910 1087 1189 1262 1223 1178 1094 1082 1127 934 842 602 484 588 634 401 183 100 45 25 14 6 6 3 0 0 0 0 0 0 0 0 114 1070 1080 1433 1211 1104 1077
296 401 539 687 886 1083 1077 1049 1128 1096 1095 1150 1138 1002 659 523 559 593 405 182 112 45 13 3 0 0 0 0 0 0 0 0 0 0 0 0 1 838 1017 1084 1574 1199 1048
202 211 410 631 779 917 1024 981 925 965 985 978 925 853 734 682 635 370 200 106 41 5 0 0 0 0 0 0 0 0 0 0 0 0 0 0 9 833 922 868 1293 1150 1081
2 47 143 286 474 575 603 598 623 666 684 723 736 710 692 560 477 368 176 76 17 10 0 3 0 0 0 0 0 0 0 0 0 0 0 0 298 607 579 434 775 917 1117
0 0 0 10 29 33 152 246 315 392 408 421 462 374 304 238 176 82 37 34 1 11 91 127 57 24 5 0 0 0 0 0 0 0 0 0 1 43 389 644 441 412 437
0 0 0 0 0 0 0 52 201 269 256 245 249 155 76 0 23 63 12 13 137 106 118 178 171 67 18 0 0 0 0 0 0 0 0 0 0 0 54 327 497 247 211
0 0 0 0 0 0 0 0 0 4 9 3 10 8 0 0 0 31 52 53 135 53 45 13 0 0 0 0 0 0 0 0 0 0 0 0 0 0 0 26 365 129 127
0 0 0 0 0 0 0 0 0 0 0 0 0 0 0 2 0 0 0 0 0 0 0 0 0 0 0 0 0 0 0 0 0 0 0 0 0 0 0 0 84 72 67
0 0 0 0 0 0 0 0 0 0 0 0 0 7 0 0 0 0 0 0 0 0 0 0 0 0 0 0 0 0 0 0 0 0 0 0 0 0 0 0 5 97 45
0 0 0 0 0 0 0 0 0 0 16 5 19 17 0 0 0 0 0 0 0 0 0 0 0 0 0 0 0 0 0 0 0 0 0 0 0 0 0 0 0 0 83
0 0 0 0 0 0 0 0 0 0 1 13 7 0 0 0 0 0 0 0 0 0 0 0 0 0 0 0 0 0 0 0 0 0 0 0 0 0 0 0 0 0 0
0 0 0 0 0 0 0 0 0 0 0 0 0 0 0 0 0 0 0 0 0 0 0 0 0 0 0 0 0 0 0 0 0 0 0 0 0 0 0 0 0 0 0
0 0 0 0 0 0 0 0 0 0 0 0 0 0 0 0 0 0 0 0 0 0 0 0 0 0 0 0 0 0 0 0 0 0 0 0 0 0 0 0 0 0 0
0 0 0 0 0 1 0 0 0 0 0 0 0 0 0 0 0 0 0 0 0 0 0 0 0 0 0 0 0 0 0 0 0 0 0 0 0 0 0 0 0 0 0
0 0 0 0 2 0 0 0 0 0 0 0 0 0 0 0 0 0 0 0 0 0 0 0 0 0 0 0 0 0 0 0 0 0 0 0 0 0 0 0 0 0 0
0 0 0 0 1 0 0 0 0 0 0 0 0 0 0 0 0 0 0 0 0 0 0 0 0 0 0 0 0 0 0 0 0 0 0 0 0 0 0 0 0 0 0
0 0 0 0 0 0 0 0 0 0 0 0 0 0 0 0 0 0 0 0 0 0 0 0 0 0 0 0 0 0 0 0 0 0 0 0 0 0 0 0 0 0 0
0 0 0 0 0 0 0 0 0 0 0 0 0 0 0 0 0 0 0 0 0 0 0 0 0 0 0 0 0 0 0 0 0 0 0 0 0 0 0 0 0 0 0
0 0 0 0 0 0 0 0 0 0 0 0 0 0 0 0 0 0 0 0 0 0 0 0 0 0 0 0 0 0 0 0 0 0 0 0 0 0 0 0 0 0 0
0 0 0 0 0 0 0 0 0 0 0 0 0 0 0 0 0 0 0 0 0 0 0 0 0 0 0 0 0 0 0 0 0 1 5 3 0 0 0 0 0 0 0
0 0 0 0 0 0 0 0 0 0 0 0 0 0 0 0 0 0 0 0 0 0 0 0 0 0 0 0 0 0 0 0 4 20 11 0 4 1 0 0 0 0 0
CIN
-25 -7 -6 -17 -31 -29 -49 -53 -21 -0 -0 -0 -0 -0 -0 -0 -5 -1 -1 -4 -0 -0 -1 -2 -6 -14 -20 -24 -34 -53 -60 -88 -98 -95 -72 -81 -19 -41 -19 -23 -19 -30 -10
-24 -22 -20 -24 -15 -21 -30 -17 -0 -0 -0 -9 -20 -9 -5 -10 -18 -22 -10 -1 -0 -0 -13 -18 -21 -25 -26 -35 -47 -51 -69 -76 -88 -96 -150 -152 -34 -32 -29 -15 -20 -20 -13
-12 -34 -21 -24 -9 -8 -0 -0 -0 -0 -10 -19 -19 -10 -15 -27 -28 -5 -0 -0 -1 -11 -17 -32 -58 -79 -98 -103 -83 -83 -78 -107 -119 -146 -197 -272 -107 -24 -38 -29 -26 -13 -16
-21 -6 -5 -3 -8 -0 -0 -0 -0 -0 -2 -7 -7 -13 -25 -15 -4 -3 -9 -17 -12 -24 -56 -103 -119 -121 -123 -148 -206 -250 -251 -235 -173 -0 -0 -0 -183 -28 -42 -35 -24 -23 -15
-1 -0 -0 -4 -18 -7 -0 -0 -0 -0 -0 -1 -2 -7 -5 -13 -43 -62 -43 -36 -65 -124 -146 -169 -182 -221 -291 -284 -110 -0 -0 -0 -0 -0 -0 -0 -176 -73 -6 -18 -44 -31 -28
-36 -12 -14 -20 -29 -26 -10 -1 -0 -0 -0 -1 -0 -10 -24 -65 -84 -60 -45 -79 -126 -158 -200 -244 -270 -292 -323 -205 -0 -0 -0 -0 -0 -0 -0 -0 -181 -31 -17 -1 -7 -12 -19
-116 -85 -82 -55 -46 -18 -3 -0 -0 -0 -3 -0 -0 -8 -60 -86 -87 -72 -101 -152 -161 -196 -253 -233 -0 -0 -0 -0 -0 -0 -0 -0 -0 -0 -0 -0 -15 -34 -16 -9 -5 -12 -14
-194 -225 -145 -87 -63 -19 -3 -6 -18 -16 -14 -13 -20 -29 -64 -79 -92 -131 -160 -173 -210 -264 -0 -0 -0 -0 -0 -0 -0 -0 -0 -0 -0 -0 -0 -0 -80 -20 -7 -6 -5 -12 -11
-89 -360 -289 -225 -159 -116 -112 -114 -104 -86 -80 -67 -71 -91 -89 -111 -111 -121 -154 -181 -223 -236 -0 -104 -0 -0 -0 -0 -0 -0 -0 -0 -0 -0 -0 -0 -56 -22 -8 -9 -4 -12 -13
-0 -0 -0 -396 -378 -377 -279 -233 -210 -173 -165 -172 -168 -168 -171 -165 -160 -183 -205 -191 -9 -201 -139 -100 -113 -128 -94 -0 -0 -0 -0 -0 -0 -0 -0 -0 -4 -38 -13 -6 -15 -24 -30
-0 -0 -0 -0 -0 -0 -0 -270 -252 -235 -242 -252 -223 -237 -242 -0 -108 -202 -114 -146 -121 -126 -115 -89 -85 -115 -134 -0 -0 -0 -0 -0 -0 -0 -0 -0 -0 -0 -22 -7 -7 -20 -26
-0 -0 -0 -0 -0 -0 -0 -0 -0 -372 -160 -158 -216 -331 -0 -0 -0 -238 -217 -201 -131 -169 -51 -64 -0 -0 -0 -0 -0 -0 -0 -0 -0 -0 -0 -0 -0 -0 -0 -6 -8 -29 -24
-0 -0 -0 -0 -0 -0 -0 -0 -0 -0 -0 -0 -0 -0 -0 -200 -0 -0 -0 -0 -0 -0 -0 -0 -0 -0 -0 -0 -0 -0 -0 -0 -0 -0 -0 -0 -0 -0 -0 -0 -7 -12 -18
-0 -0 -0 -0 -0 -0 -0 -0 -0 -0 -0 -0 -49 -398 -0 -0 -0 -0 -0 -0 -0 -0 -0 -0 -0 -0 -0 -0 -0 -0 -0 -0 -0 -0 -0 -0 -0 -0 -0 -0 -0 -0 -4
-0 -0 -0 -0 -0 -0 -0 -0 -0 -0 -401 -399 -359 -368 -0 -0 -0 -0 -0 -0 -0 -0 -0 -0 -0 -0 -0 -0 -0 -0 -0 -0 -0 -0 -0 -0 -0 -0 -0 -0 -0 -0 -0
-0 -0 -0 -0 -0 -0 -0 -0 -0 -0 -170 -404 -388 -0 -0 -0 -0 -0 -0 -0 -0 -0 -0 -0 -0 -0 -0 -0 -0 -0 -0 -0 -0 -0 -0 -0 -0 -0 -0 -0 -0 -0 -0
-0 -0 -0 -0 -0 -0 -0 -0 -0 -0 -0 -0 -0 -0 -0 -0 -0 -0 -0 -0 -0 -0 -0 -0 -0 -0 -0 -0 -0 -0 -0 -0 -0 -0 -0 -0 -0 -0 -0 -0 -0 -0 -0
-0 -0 -0 -0 -0 -0 -0 -0 -0 -0 -0 -0 -0 -0 -0 -0 -0 -0 -0 -0 -0 -0 -0 -0 -0 -0 -0 -0 -0 -0 -0 -0 -0 -0 -0 -0 -0 -0 -0 -0 -0 -0 -0
-0 -0 -0 -0 -0 -0 -0 -0 -0 -0 -0 -0 -0 -0 -0 -0 -0 -0 -0 -0 -0 -0 -0 -0 -0 -0 -0 -0 -0 -0 -0 -0 -0 -0 -0 -0 -0 -0 -0 -0 -0 -0 -0
-0 -0 -0 -0 -0 -0 -0 -0 -0 -0 -0 -0 -0 -0 -0 -0 -0 -0 -0 -0 -0 -0 -0 -0 -0 -0 -0 -0 -0 -0 -0 -0 -0 -0 -0 -0 -0 -0 -0 -0 -0 -0 -0
-0 -0 -0 -0 -0 -0 -0 -0 -0 -0 -0 -0 -0 -0 -0 -0 -0 -0 -0 -0 -0 -0 -0 -0 -0 -0 -0 -0 -0 -0 -0 -0 -0 -0 -0 -0 -0 -0 -0 -0 -0 -0 -0
-0 -0 -0 -0 -0 -0 -0 -0 -0 -0 -0 -0 -0 -0 -0 -0 -0 -0 -0 -0 -0 -0 -0 -0 -0 -0 -0 -0 -0 -0 -0 -0 -0 -0 -0 -0 -0 -0 -0 -0 -0 -0 -0
-0 -0 -0 -0 -0 -0 -0 -0 -0 -0 -0 -0 -0 -0 -0 -0 -0 -0 -0 -0 -0 -0 -0 -0 -0 -0 -0 -0 -0 -0 -0 -0 -0 -0 -0 -0 -0 -0 -0 -0 -0 -0 -0
-0 -0 -0 -0 -0 -0 -0 -0 -0 -0 -0 -0 -0 -0 -0 -0 -0 -0 -0 -0 -0 -0 -0 -0 -0 -0 -0 -0 -0 -0 -0 -0 -0 -0 -0 -0 -0 -0 -0 -0 -0 -0 -0
-0 -0 -0 -0 -0 -0 -0 -0 -0 -0 -0 -0 -0 -0 -0 -0 -0 -0 -0 -0 -0 -0 -0 -0 -0 -0 -0 -0 -0 -0 -0 -0 -0 -0 -0 -8 -0 -0 -0 -0 -0 -0 -0
-0 -0 -0 -0 -0 -0 -0 -0 -0 -0 -0 -0 -0 -0 -0 -0 -0 -0 -0 -0 -0 -0 -0 -0 -0 -0 -0 -0 -0 -0 -0 -1 -0 -0 -0 -1 -1 -1 -0 -0 -0 -0 -0
Wind_Speed
5 5 9 10 12 12 12 12 12 13 14 15 15 15 15 14 13 12 13 12 12 12 11 11 11 12 13 13 13 12 11 12 12 12 11 10 7 8 9 7 6 5 7
8 6 9 11 12 12 13 13 13 13 14 15 15 14 14 13 13 13 12 11 11 11 11 11 11 12 12 13 13 12 12 12 11 12 10 9 6 5 6 6 5 4 5
10 6 7 11 13 14 14 14 15 14 15 15 15 14 13 12 11 10 10 11 11 11 10 10 11 13 14 14 14 14 14 14 13 12 11 4 2 5 8 7 6 4 3
9 4 4 10 13 14 14 15 14 15 15 14 13 13 12 11 11 10 10 10 10 11 11 11 11 13 13 14 14 14 15 15 15 14 7 7 4 7 6 6 6 4 2
8 6 6 10 12 14 14 13 13 13 13 11 12 11 11 10 10 10 10 10 10 10 11 11 11 11 12 12 12 13 13 14 13 9 6 6 4 7 4 5 7 7 6
7 6 8 10 11 13 13 13 13 13 12 10 10 11 10 10 9 9 9 9 10 10 10 10 10 9 9 8 9 9 10 11 11 6 6 7 5 9 12 8 3 7 8
6 5 6 9 11 12 13 13 11 11 10 10 9 9 9 9 9 9 8 8 9 7 8 9 9 8 7 6 7 7 8 9 6 6 6 6 6 12 12 11 10 5 7
7 5 5 9 10 10 11 10 10 10 9 9 8 8 8 8 8 7 7 6 6 6 7 7 8 8 8 8 8 9 9 9 6 6 6 5 8 11 11 12 12 9 6
5 6 5 5 7 9 10 10 10 9 8 8 7 8 7 7 5 5 5 5 5 5 6 7 8 9 10 10 11 10 9 9 6 4 5 4 10 10 10 11 11 12 11
4 4 5 5 5 6 5 8 8 8 8 9 8 6 5 5 4 4 5 4 4 6 8 9 10 10 10 10 9 10 10 7 5 5 4 4 10 11 10 10 9 10 12
2 4 3 4 4 5 4 5 8 8 8 7 6 6 4 2 2 3 3 6 6 7 7 7 8 9 10 10 11 10 9 3 5 4 3 9 11 11 10 10 9 10 10
6 4 5 5 6 6 5 6 6 6 4 4 4 4 3 2 1 1 3 6 6 7 7 6 6 7 7 4 4 8 3 5 4 4 3 11 13 12 10 10 9 10 11
6 4 6 5 5 6 4 3 2 2 3 2 4 4 3 3 2 1 1 2 2 4 3 4 4 4 5 4 4 4 5 5 3 4 6 12 14 16 16 13 10 11 12
8 9 6 6 5 5 1 1 1 2 3 3 4 4 3 2 2 2 1 1 2 3 4 4 3 4 5 4 4 5 5 4 3 3 5 14 15 16 18 19 17 13 12
8 6 6 5 3 1 0 1 1 3 2 3 4 3 3 2 2 2 3 4 4 3 4 4 4 4 5 5 4 5 6 6 6 4 3 13 14 16 17 19 20 19 16
7 7 4 3 5 5 4 3 3 3 3 2 2 3 4 4 4 4 4 5 4 3 3 4 3 4 4 4 5 6 5 5 5 6 4 6 14 16 17 17 18 20 20
6 4 7 8 7 7 6 6 3 1 3 3 4 5 6 5 6 6 5 4 4 4 5 4 4 3 4 4 5 5 5 6 5 7 5 5 7 13 17 19 20 20 19
6 11 10 9 8 9 9 8 6 5 5 4 5 6 7 7 7 6 5 4 3 3 4 4 4 4 3 4 4 4 4 4 5 5 5 5 6 7 11 20 21 20 20
11 13 11 8 10 12 10 6 4 6 7 5 5 6 6 7 7 7 4 3 4 4 4 2 1 0 2 3 4 4 4 3 4 4 5 5 6 6 6 14 19 18 21
11 12 11 9 9 12 3 1 3 5 5 4 4 4 5 5 6 5 4 5 4 3 3 3 2 2 1 2 5 4 5 2 3 3 4 5 5 6 6 8 8 9 18
8 11 8 9 8 7 2 3 2 1 3 4 4 6 6 6 6 6 4 4 4 4 5 4 2 2 2 3 1 3 3 2 2 3 3 2 5 6 6 6 6 6 7
9 6 7 8 9 6 5 4 4 3 3 4 3 5 5 6 6 5 5 4 5 4 5 5 4 3 2 3 2 2 3 4 3 5 4 3 4 3 7 8 8 8 7
8 8 8 8 8 6 7 5 4 4 3 2 3 3 4 5 4 4 5 4 4 3 2 1 1 2 1 2 3 1 3 3 3 3 3 3 4 3 5 6 7 8 7
4 4 5 5 5 3 2 3 2 2 3 1 2 1 2 4 3 3 3 2 1 1 2 2 1 0 1 1 2 1 1 2 2 4 2 4 5 6 4 6 6 7 6
3 2 1 3 5 5 5 4 3 4 3 2 2 2 0 1 1 1 1 2 2 1 1 2 2 2 1 1 1 2 2 2 2 3 8 4 4 4 4 5 6 5 5
2 4 2 3 4 4 3 3 4 6 5 3 2 2 2 2 3 4 3 3 2 1 2 1 1 1 2 2 2 3 2 2 5 4 6 7 5 4 3 6 5 4 5
Wind_Direction
162 161 145 132 123 131 124 113 107 104 105 104 99 95 93 88 83 76 71 72 74 72 65 59 54 51 49 49 46 36 24 26 18 17 9 9 13 32 55 57 59 45 54
132 145 152 128 128 122 116 111 109 107 105 104 100 93 87 84 79 73 70 68 70 68 64 57 53 51 49 44 41 32 21 18 19 10 5 355 350 26 31 52 51 61 49
137 139 141 129 120 115 117 117 117 118 114 110 103 100 97 93 90 89 87 83 80 76 68 61 51 45 42 40 35 32 23 17 14 12 4 4 328 355 352 20 37 38 21
125 110 123 117 113 114 119 120 122 122 118 115 113 111 108 109 106 102 95 86 84 80 75 65 56 53 48 43 36 31 23 17 17 10 358 341 335 356 356 359 2 20 7
124 133 119 116 117 116 118 120 121 118 118 124 119 117 117 118 117 112 101 94 89 86 80 78 68 58 51 40 34 32 24 15 17 16 352 339 340 339 30 352 343 339 350
122 119 128 129 122 119 117 118 125 127 130 129 129 130 130 126 115 104 95 89 80 77 76 72 66 59 56 49 40 30 24 18 15 9 358 355 357 327 332 344 334 327 321
117 131 134 131 119 121 131 134 128 125 130 129 133 134 133 125 112 103 96 88 89 76 67 62 58 53 50 36 37 27 16 17 26 7 2 352 347 340 333 333 333 342 325
142 137 133 132 129 134 133 129 132 137 139 134 142 139 130 121 112 115 103 92 80 69 59 57 47 36 31 26 29 28 11 8 22 13 0 354 342 339 335 332 334 338 339
124 137 144 140 136 139 141 148 142 142 140 147 147 133 123 114 115 107 100 93 70 47 36 28 30 22 17 12 8 5 17 2 8 356 356 346 342 340 343 339 346 348 348
149 156 143 143 144 143 152 146 139 154 157 150 137 126 119 117 116 97 72 51 43 31 21 13 8 7 5 0 5 355 357 10 352 343 342 324 333 330 327 329 335 333 329
174 182 170 152 151 149 153 162 155 156 161 146 144 138 123 100 61 25 25 12 7 12 10 8 0 353 348 353 353 353 354 345 335 324 323 316 324 320 314 311 310 308 304
199 193 187 174 181 171 180 168 159 166 158 149 153 164 146 154 138 317 9 2 2 7 356 0 6 2 4 359 348 352 348 334 326 309 300 307 313 311 303 297 294 294 296
188 179 191 196 199 200 185 160 144 142 150 158 184 186 182 158 153 137 56 11 350 7 6 22 23 31 20 7 354 353 347 340 323 312 310 310 309 308 303 295 275 273 283
189 198 186 194 201 222 63 132 151 172 175 176 199 186 185 182 168 163 128 93 8 6 29 33 26 16 30 18 14 4 0 351 329 318 315 316 314 309 302 300 298 282 267
200 196 200 179 206 340 293 36 265 251 229 192 192 210 172 164 150 119 66 44 28 17 30 30 30 33 21 7 17 17 1 348 338 327 321 322 318 319 313 307 299 293 288
197 199 156 148 55 30 1 322 294 278 288 287 20 24 46 63 59 59 57 44 34 29 39 48 33 26 18 3 2 358 346 330 329 329 328 325 326 328 324 318 311 306 295
200 133 90 88 64 54 41 14 338 70 60 60 63 58 62 64 72 77 72 48 21 19 36 29 19 20 16 357 351 336 336 334 340 347 345 347 344 352 355 353 340 328 314
119 96 90 94 76 53 48 24 357 14 49 52 64 67 67 71 81 78 75 55 25 46 43 31 18 358 355 352 330 314 319 324 358 18 4 16 8 10 6 6 2 357 344
112 116 107 89 78 63 38 69 352 35 62 55 64 73 76 85 88 87 79 60 43 50 40 21 315 132 314 331 310 298 318 354 42 25 13 26 22 14 1 352 353 351 350
86 94 94 90 83 91 154 185 36 60 60 64 79 82 90 75 69 75 64 44 21 20 7 13 351 331 270 342 305 312 292 357 72 32 22 21 12 6 355 347 343 336 340
78 96 100 110 140 153 166 176 111 108 80 66 72 73 65 63 58 56 51 34 18 24 360 1 335 353 339 326 327 297 298 184 80 358 90 46 13 354 353 346 336 331 330
105 108 115 137 154 166 161 173 165 149 98 96 67 60 64 71 56 60 47 34 31 22 11 14 30 343 329 23 6 281 343 320 350 348 6 42 7 343 352 341 328 329 326
120 134 138 148 143 145 134 115 76 71 70 78 45 47 35 61 63 64 59 62 50 55 15 323 351 50 315 314 41 110 339 280 337 327 356 2 4 346 331 322 324 325 321
117 90 105 125 123 109 119 68 108 150 146 122 122 118 78 48 47 92 117 117 107 303 325 314 6 105 104 340 332 25 229 231 300 314 315 332 316 312 290 304 310 316 317
57 64 19 69 64 40 29 68 84 80 88 100 80 84 42 8 8 162 136 251 262 300 292 297 336 9 30 336 247 303 285 265 214 257 303 305 282 319 303 301 298 297 315
10 77 92 86 50 57 64 65 107 121 116 115 189 217 235 240 249 248 270 243 225 223 241 252 243 252 293 277 272 269 242 284 306 286 287 305 303 307 282 291 292 303 312